Regional Weather Roundup
Issued by NWS Green Bay, WI

Home | Current Version | Previous Version | Graphics & Text | Print | Product List | Glossary Off
Versions: 1 2 3 4 5 6 7 8 9 10 11 12 13 14 15 16 17 18 19 20 21 22 23 24 25 26 27 28 29 30 31 32 33 34 35 36 37 38 39 40 41 42 43 44 45 46 47 48 49 50

000
ASUS43 KGRB 162210
RWRGRB

NORTH-CENTRAL AND NORTHEAST WISCONSIN REGIONAL WEATHER ROUNDUP
NATIONAL WEATHER SERVICE GREEN BAY WI
500 PM CDT WED APR 16 2014

WIZ005-009-010>012-018-019-162300-
NORTH CENTRAL WISCONSIN

CITY           SKY/WX    TMP DP  RH WIND       PRES   REMARKS
IRONWOOD       CLOUDY    28  25  86 E13       30.09S VSB 1
MANITOWISH WTR LGT SNOW  29  27  94 E7        30.08S VSB 3/4
ARBOR VITAE    FLURRIES  32  27  81 SE12G20   30.07S
EAGLE RIVER    LGT SNOW  30  25  81 SE9G18    30.09F
LAND O LAKES   LGT SNOW  30  26  88 SE13G21   30.10F
RHINELANDER    CLOUDY    30  25  81 E17G24    30.08F
PHILLIPS       CLOUDY    32  27  80 SE13G21   30.03S
ANTIGO         CLOUDY    32  27  82 SE18G26   30.08S
TOMAHAWK       CLOUDY    32  27  81 E8        30.05F
MERRILL        CLOUDY    36  28  75 CALM      30.05S
$$

WIZ013-073-162300-
NORTHEAST WISCONSIN

CITY           SKY/WX    TMP DP  RH WIND       PRES   REMARKS
IRON MOUNTAIN  CLOUDY    30  25  80 E14G21    30.18F
MARINETTE      CLOUDY    36  23  60 SE16G22   30.23S
OCONTO         CLOUDY    36  24  62 SE15G21   30.21S
$$

WIZ017-030-035>037-045-162300-
CENTRAL WISCONSIN

CITY           SKY/WX    TMP DP  RH WIND       PRES   REMARKS
MEDFORD        CLOUDY    36  28  73 E12G17    30.00S
WAUSAU         CLOUDY    38  28  67 SE16      30.03F
MOSINEE        SUNNY     37  28  70 E12G20    30.05S
MARSHFIELD     CLOUDY    44  30  57 SE20G28   29.97F
WISC RAPIDS    CLOUDY    45  29  53 SE12G25   30.02S
STEVENS POINT  CLOUDY    38  29  69 E16G22    30.03S
WAUPACA        CLOUDY    43  28  56 SE21G29   30.09F
SHAWANO        CLOUDY    39  28  66 SE16G24   30.15F
CLINTONVILLE   CLOUDY    39  28  65 SE18G26   30.12F
$$

WIZ038-039-048-051-162300-
FOX VALLEY

CITY           SKY/WX    TMP DP  RH WIND       PRES   REMARKS
NWS GREEN BAY  CLOUDY    37  26  64 SE13      30.19F
APPLETON       PTSUNNY   39  27  60 SE18G28   30.14S
OSHKOSH        CLOUDY    41  27  57 SE18G29   30.11F
FOND DU LAC    CLOUDY    43  28  55 SE24G30   30.11F
$$

WIZ022-050-052-162300-
EAST CENTRAL WISCONSIN

CITY           SKY/WX    TMP DP  RH WIND       PRES   REMARKS
STURGEON BAY   CLOUDY    37  19  48 SE16G22   30.24S
MANITOWOC      CLOUDY    37  26  64 SE22G28   30.21F
SHEBOYGAN      CLOUDY    38  24  57 SE14G29   30.19F
$$

LMZ563-521-522-541>543-162300-
LAKESHORE

STATION/POSITION TIME  TEMP    WIND        PRES    VSBY  WAVE
                       AIR SEA DIR/SP/G                  HT/PER
                 (UTC) (F)     (DEG/KT/KT) (MB)    (MI)  (FT/S)
SHEBOYGAN LKSHOR 2200   38     120/ 22/ 24 1023.0F
TWO RIVERS CG    2100   34                   N/A       6   5
NORTHPORT PIER   2200   31     110/ 19/ 22 1025.4F
SISTER BAY LKSHO 2200   33     140/ 15/ 23   N/A
STURGEON BAY CG  2100   35     160/ 13     1024.6      6   3
MENOMINEE LKSHOR 2200   33     120/ 16/ 18 1024.3F
$$



USA.gov is the U.S. government's official web portal to all federal, state and local government web resources and services.